Orbital Elements at Epoch 2459000.5 (2020-May-31.0) TDB
Reference: JPL 22 (heliocentric ecliptic J2000)
Element | Value | Uncertainty (1-sigma) | Units |
e | .2632657629066535 | 4.1639e-08 | |
a | 2.333914531959756 | 9.1917e-09 | au |
q | 1.719474742144446 | 9.8141e-08 | au |
i | 5.382384857268561 | 4.1883e-06 | deg |
node | 283.3227841584204 | 5.0071e-05 | deg |
peri | 69.84513057659387 | 5.0641e-05 | deg |
M | 282.7506634401382 | 8.644e-06 | deg |
tp | 2459279.959003783239 (2021-Mar-06.45900378) | 3.1799e-05 | TDB |
period | 1302.344406336816 3.57 | 7.6936e-06 2.106e-08 | d yr |
n | .2764245757484336 | 1.633e-09 | deg/d |
Q | 2.948354321775067 | 1.1612e-08 | au |
|
| | Orbit Determination Parameters
Additional Information
|